{"data":{"norad_id":63303,"epoch":"2026-05-25T04:38:29.284800Z","epoch_age_seconds":61778,"freshness":"FRESH","line1":"1 63303U 25056D   26145.19339450  .00001333  00000+0  21861-3 0  9995","line2":"2 63303  97.9080 269.8575 0002012  46.8867 313.2508 14.72281494 63740","mean_motion":14.72281494,"eccentricity":0.0002012,"inclination_deg":97.908,"raan_deg":269.8575,"arg_perigee_deg":46.8867,"mean_anomaly_deg":313.2508,"bstar":0.00021861,"rev_number":6374,"period_min":97.807383022095,"perigee_km":652.37926009359,"apogee_km":655.20890916204,"semimajor_km":7031.9310846278,"source":"CELESTRAK","updated_at":"2026-05-25T13:38:03.648477Z"}}